Regional Weather Roundup
Issued by NWS New Orleans/Baton Rouge, LA

Home | Current Version | Previous Version | Graphics & Text | Print | Product List | Glossary On
Versions: 1 2 3 4 5 6 7 8 9 10 11 12 13 14 15 16 17 18 19 20 21 22 23 24 25 26 27 28 29 30 31 32 33 34 35 36 37 38 39 40 41 42 43 44 45 46 47 48 49 50
292
ASUS44 KLIX 191910
RWRLIX
NEW ORLEANS REGIONAL WEATHER ROUNDUP
NATIONAL WEATHER SERVICE NEW ORLEANS LA
100 PM CST FRI DEC 19 2014

NOTE: "FAIR" INDICATES FEW OR NO CLOUDS BELOW 12,000 FEET WITH NO
      SIGNIFICANT WEATHER AND/OR OBSTRUCTIONS TO VISIBILITY.
      SKY/WX - SKY CONDITION AND SIGNIFICANT WEATHER.
      TMP - AIR TEMPERATURE.     DP    - DEWPOINT TEMPERATURE.
      RH  - RELATIVE HUMIDITY.   PRES  - PRESSURE.
      HI  - HEAT INDEX.          WCI   - WIND CHILL INDEX.

*  THESE STATIONS ARE NOT NWS OR FAA STATIONS AND ARE NOT UNDER
   NWS QUALITY CONTROL.

LAZ038-040-048-061>063-065>067-069-192000-
SOUTHEAST LOUISIANA

CITY           SKY/WX    TMP DP  RH WIND       PRES   REMARKS
N.O. AUDUBON     N/A     54  54  99 MISG        N/A
N.O. INTL ARPT LGT RAIN  54  51  90 E8        30.07F FOG
N.O. LAKEFRONT RAIN      55  51  86 E6        30.09R FOG
N.O. DOWNTOWN* CLOUDY    54  48  82 NE5       30.09R
SLIDELL        LGT RAIN  51  48  89 CALM      30.07S
BATON ROUGE    LGT RAIN  54  52  93 NE8       30.07F FOG
BOOTHVILLE     LGT RAIN  58  57  97 E12       30.04F FOG
BELLE CHASSE   HVY RAIN  54  52  93 N3        30.07F FOG
BOGALUSA*      RAIN      50  45  84 NE6       30.10S
GALLIANO*      HVY RAIN  58  56  94 MISG      30.06F
NEW ROADS*     RAIN      53  52  97 NE8       30.08F
GONZALES*      LGT RAIN  57  57 100 E3        30.04F
HAMMOND*       NOT AVBL
HOUMA*         CLOUDY    55  55 100 NE9       30.06F FOG
PORT FOURCHON* CLOUDY    61  59  94 E14G20    30.07F

$$

MSZ070-080>082-192000-
SOUTHERN MISSISSIPPI

CITY           SKY/WX    TMP DP  RH WIND       PRES   REMARKS
MCCOMB         LGT RAIN  46  43  89 N7        30.11S FOG
GULFPORT       LGT RAIN  51  48  89 NE7       30.07F
BILOXI         LGT RAIN  52  52 100 N7        30.07F
PASCAGOULA     CLOUDY    53  49  86 NE8       30.08F
STENNIS ARPT*  TSTM      48  45  87 CALM      30.09F

$$

COASTAL OBSERVATIONS
LAKE AND NEARSHORE STATIONS

STATION/POSITION TIME  TEMP    WIND        PRES    WAVE
                       AIR SEA DIR/SP/G            HT/PER
                 (UTC) (F)     (DEG/KT/KT) (MB)    (FT/S)
PASCAGOULA       1900   54      60/ 10/ 13 1017.7
WAVELAND YACHT   1900   51      70/  4/  5 1017.6
GRAND ISLE       1900   58 62   90/  9/ 15 1017.8
SOUTHWEST PASS   1900   62                 1017.2
NEW CANAL        1900   54 57   70/ 10/ 11 1018.7
SHELL BEACH      1900   54 59   70/ 15/ 17 1017.2

OFFSHORE STATIONS

STATION/POSITION TIME  TEMP    WIND        PRES    WAVE
                       AIR SEA DIR/SP/G            HT/PER
                 (UTC) (F)     (DEG/KT/KT) (MB)    (FT/S)
64 S DAUPHIN ISL 1900   67 75   90/ 21/ 27 1016.7    5/ 6

$$




USA.gov is the U.S. government's official web portal to all federal, state and local government web resources and services.